Starlink 5559

operational
NORAD ID: 56335 Int'l Des: 2023-058 Owner: SPXS Country: US Constellation: starlink
LEOCIRCULARRETROGRADESSO

关于 Starlink 5559

正在加载描述...

实时位置

正在加载3D地球...

即将过境

高度历史

Altitude vs Time

uPlot chart will show altitude changes over time

两行轨道根数

1 56335U 23058U 25350.97311885 .00000126 00000-0 12978-4 0 9997
2 56335 97.6028 349.7301 0002078 75.8987 284.2470 15.05648173145753
Epoch: Dec 16, 2025 • Age: 13 hours

当前状态

高度 554.6 km
速度 7.59 km/s
星下点 39.64°N, 100.82°W
发射日期 Apr 27, 2023
运行时间 2.6 years
类型 internet

技术详情

分类 Payload
质量 300.00 kg
干质量 260.00 kg
总质量 300.00 kg
长度 0.20 m
直径 2.80 m
跨度 9.00 m
形状 Box + pan
制造商 SPXS
平台类型 Starlink
阶段状态 In Orbit
所有者/国家 SPXS/US

大型星座

Loading constellations...